Time,TemperatureF,DewpointF,PressureIn,WindDirection,WindDirectionDegrees,WindSpeedMPH,WindSpeedGustMPH,Humidity,HourlyPrecipIn,Conditions,Clouds,dailyrainin,SoftwareType,DateUTC
2013-04-13 00:00:00,60.9,42.8,29.74,NNW,329,0.0,27.1,51,0.00,,CLR,0.34,VWS V14.00,2013-04-13 04:00:00,
2013-04-13 00:01:00,54.5,38.9,29.76,WNW,294,0.0,6.5,55,0.00,,CLR,0.00,VWS V14.00,2013-04-13 04:01:00,
2013-04-13 00:02:00,54.8,39.2,29.76,WNW,294,0.0,6.5,56,0.00,,CLR,0.00,VWS V14.00,2013-04-13 04:02:00,
2013-04-13 00:03:00,54.9,39.4,29.76,WNW,294,0.0,6.5,56,0.00,,CLR,0.00,VWS V14.00,2013-04-13 04:03:00,
2013-04-13 00:04:00,54.1,38.7,29.76,WNW,294,0.0,6.5,56,0.00,,CLR,0.00,VWS V14.00,2013-04-13 04:04:00,
2013-04-13 00:05:00,60.3,42.3,29.74,North,353,4.9,10.7,51,0.00,,CLR,0.34,VWS V14.00,2013-04-13 04:05:00,
2013-04-13 00:06:00,53.5,38.2,29.76,WNW,294,0.0,6.5,56,0.00,,CLR,0.00,VWS V14.00,2013-04-13 04:06:00,
2013-04-13 00:10:00,59.7,41.9,29.75,NNE,15,0.0,10.7,52,0.00,,CLR,0.34,VWS V14.00,2013-04-13 04:10:00,
2013-04-13 00:15:00,58.1,40.5,29.75,NW,311,0.0,10.7,52,0.00,,CLR,0.34,VWS V14.00,2013-04-13 04:15:00,
2013-04-13 00:20:00,56.9,39.6,29.75,NW,311,0.0,6.2,52,0.00,,CLR,0.34,VWS V14.00,2013-04-13 04:20:00,
2013-04-13 00:25:00,56.8,39.6,29.75,NNW,329,0.0,6.8,52,0.00,,CLR,0.34,VWS V14.00,2013-04-13 04:25:00,
2013-04-13 00:30:00,57.3,40.4,29.75,NNW,339,3.2,6.8,53,0.00,,CLR,0.34,VWS V14.00,2013-04-13 04:30:00,
2013-04-13 00:35:00,56.7,40.2,29.75,NNW,335,0.0,7.1,54,0.00,,CLR,0.34,VWS V14.00,2013-04-13 04:35:00,
2013-04-13 00:40:00,56.5,40.0,29.76,NW,315,3.2,7.1,54,0.00,,CLR,0.34,VWS V14.00,2013-04-13 04:40:00,
2013-04-13 00:45:00,55.4,39.3,29.76,NNW,328,3.4,7.1,55,0.00,,CLR,0.34,VWS V14.00,2013-04-13 04:45:00,
2013-04-13 00:50:00,55.8,39.8,29.76,NNW,343,0.0,6.5,55,0.00,,CLR,0.34,VWS V14.00,2013-04-13 04:50:00,
2013-04-13 00:55:00,54.9,39.1,29.76,North,3,0.0,6.5,55,0.00,,CLR,0.34,VWS V14.00,2013-04-13 04:55:00,
2013-04-13 01:00:00,54.5,38.9,29.76,WNW,294,0.0,6.5,55,0.00,,CLR,0.34,VWS V14.00,2013-04-13 05:00:00,
2013-04-13 01:05:00,54.1,38.7,29.76,WNW,294,0.0,6.5,56,0.00,,CLR,0.00,VWS V14.00,2013-04-13 05:05:00,
2013-04-13 01:10:00,52.6,37.4,29.76,WNW,294,0.0,6.5,56,0.00,,CLR,0.00,VWS V14.00,2013-04-13 05:10:00,
2013-04-13 01:15:00,53.2,38.2,29.77,WNW,294,0.0,6.5,57,0.00,,CLR,0.00,VWS V14.00,2013-04-13 05:15:00,
2013-04-13 01:20:00,53.1,38.3,29.77,WNW,294,0.0,6.5,57,0.00,,CLR,0.00,VWS V14.00,2013-04-13 05:20:00,
2013-04-13 01:25:00,52.7,38.3,29.77,WNW,294,0.0,6.5,58,0.00,,CLR,0.00,VWS V14.00,2013-04-13 05:25:00,
2013-04-13 01:30:00,52.1,37.9,29.77,WNW,294,0.0,6.5,58,0.00,,CLR,0.00,VWS V14.00,2013-04-13 05:30:00,
2013-04-13 01:35:00,52.2,38.2,29.77,WNW,294,0.0,6.5,59,0.00,,CLR,0.00,VWS V14.00,2013-04-13 05:35:00,
2013-04-13 01:40:00,53.8,39.8,29.77,WNW,285,0.0,6.5,59,0.00,,CLR,0.00,VWS V14.00,2013-04-13 05:40:00,
2013-04-13 01:45:00,52.9,39.0,29.77,WNW,285,0.0,6.5,59,0.00,,CLR,0.00,VWS V14.00,2013-04-13 05:45:00,
2013-04-13 01:50:00,52.9,39.2,29.77,WNW,285,0.0,6.5,59,0.00,,CLR,0.00,VWS V14.00,2013-04-13 05:50:00,
2013-04-13 01:55:00,53.1,39.5,29.78,WNW,285,0.0,6.5,60,0.00,,CLR,0.00,VWS V14.00,2013-04-13 05:55:00,
2013-04-13 02:00:00,52.6,39.2,29.78,NW,304,0.0,6.5,60,0.00,,CLR,0.00,VWS V14.00,2013-04-13 06:00:00,
2013-04-13 02:05:00,53.4,40.2,29.78,North,350,0.0,6.5,61,0.00,,CLR,0.00,VWS V14.00,2013-04-13 06:05:00,
2013-04-13 02:10:00,52.1,39.0,29.78,NNW,338,0.0,6.5,61,0.00,,CLR,0.00,VWS V14.00,2013-04-13 06:10:00,
2013-04-13 02:15:00,52.0,39.2,29.78,NNW,339,0.0,6.5,62,0.00,,CLR,0.00,VWS V14.00,2013-04-13 06:15:00,
2013-04-13 02:20:00,51.8,39.0,29.78,WNW,298,0.0,6.5,61,0.00,,CLR,0.00,VWS V14.00,2013-04-13 06:20:00,
2013-04-13 02:25:00,52.8,40.0,29.79,NNW,328,0.0,6.5,62,0.00,,CLR,0.00,VWS V14.00,2013-04-13 06:25:00,
2013-04-13 02:30:00,53.0,40.1,29.79,North,3,0.0,6.5,61,0.00,,CLR,0.00,VWS V14.00,2013-04-13 06:30:00,
2013-04-13 02:35:00,53.4,40.6,29.79,North,354,2.9,6.5,62,0.00,,CLR,0.00,VWS V14.00,2013-04-13 06:35:00,
2013-04-13 02:40:00,52.8,40.0,29.79,NNW,346,0.0,6.5,62,0.00,,CLR,0.00,VWS V14.00,2013-04-13 06:40:00,
2013-04-13 02:45:00,53.1,40.1,29.79,WNW,285,0.0,6.5,61,0.00,,CLR,0.00,VWS V14.00,2013-04-13 06:45:00,
2013-04-13 02:51:00,52.3,39.3,29.79,NW,319,0.0,6.5,61,0.00,,CLR,0.00,VWS V14.00,2013-04-13 06:51:00,
2013-04-13 02:56:00,52.4,39.7,29.79,North,359,0.0,6.5,62,0.00,,CLR,0.00,VWS V14.00,2013-04-13 06:56:00,
2013-04-13 03:02:00,51.8,39.8,29.80,North,359,0.0,6.5,63,0.00,,CLR,0.00,VWS V14.00,2013-04-13 07:02:00,
2013-04-13 03:07:00,51.9,40.2,29.80,North,359,0.0,6.5,64,0.00,,CLR,0.00,VWS V14.00,2013-04-13 07:07:00,
2013-04-13 03:12:00,51.9,41.0,29.80,North,359,0.0,6.5,66,0.00,,CLR,0.00,VWS V14.00,2013-04-13 07:12:00,
2013-04-13 04:39:00,50.7,42.6,29.83,North,0,0.0,0.0,74,0.00,,,0.00,VWS V14.00,2013-04-13 08:39:00,
2013-04-13 04:44:00,50.5,42.6,29.83,North,0,0.0,0.0,74,0.00,,,0.00,VWS V14.00,2013-04-13 08:44:00,
2013-04-13 04:49:00,50.3,43.0,29.83,North,0,0.0,0.0,76,0.00,,CLR,0.00,VWS V14.00,2013-04-13 08:49:00,
2013-04-13 04:54:00,50.0,43.2,29.83,North,0,0.0,0.0,78,0.00,,CLR,0.00,VWS V14.00,2013-04-13 08:54:00,
2013-04-13 04:59:00,49.9,43.2,29.84,North,0,0.0,0.0,78,0.00,,CLR,0.00,VWS V14.00,2013-04-13 08:59:00,
2013-04-13 05:04:00,49.6,43.3,29.84,North,0,0.0,0.0,79,0.00,,CLR,0.00,VWS V14.00,2013-04-13 09:04:00,
2013-04-13 05:10:00,49.5,43.0,29.84,North,0,0.0,0.0,78,0.00,,CLR,0.00,VWS V14.00,2013-04-13 09:10:00,
2013-04-13 05:15:00,49.4,43.3,29.84,North,0,0.0,0.0,79,0.00,,CLR,0.00,VWS V14.00,2013-04-13 09:15:00,
2013-04-13 05:20:00,49.3,43.2,29.84,North,0,0.0,0.0,79,0.00,,CLR,0.00,VWS V14.00,2013-04-13 09:20:00,
2013-04-13 05:25:00,49.1,43.1,29.84,North,0,0.0,0.0,80,0.00,,CLR,0.00,VWS V14.00,2013-04-13 09:25:00,
2013-04-13 05:30:00,49.0,42.8,29.84,North,0,0.0,0.0,79,0.00,,CLR,0.00,VWS V14.00,2013-04-13 09:30:00,
2013-04-13 05:35:00,49.0,42.8,29.84,North,0,0.0,0.0,79,0.00,,CLR,0.00,VWS V14.00,2013-04-13 09:35:00,
2013-04-13 05:40:00,49.0,42.8,29.84,North,0,0.0,0.0,79,0.00,,CLR,0.00,VWS V14.00,2013-04-13 09:40:00,
2013-04-13 05:45:00,48.9,42.8,29.84,North,0,0.0,0.0,79,0.00,,CLR,0.00,VWS V14.00,2013-04-13 09:45:00,
2013-04-13 05:50:00,48.8,42.8,29.84,North,0,0.0,0.0,80,0.00,,CLR,0.00,VWS V14.00,2013-04-13 09:50:00,
2013-04-13 05:56:00,48.6,42.7,29.84,North,0,0.0,0.0,80,0.00,,CLR,0.00,VWS V14.00,2013-04-13 09:56:00,
2013-04-13 06:01:00,48.6,42.5,29.84,North,0,0.0,0.0,79,0.00,,CLR,0.00,VWS V14.00,2013-04-13 10:01:00,
2013-04-13 06:06:00,48.4,42.4,29.84,North,0,0.0,0.0,80,0.00,,CLR,0.00,VWS V14.00,2013-04-13 10:06:00,
2013-04-13 06:11:00,48.3,42.5,29.85,North,0,0.0,0.0,80,0.00,,CLR,0.00,VWS V14.00,2013-04-13 10:11:00,
2013-04-13 06:16:00,48.1,42.5,29.84,North,0,0.0,0.0,81,0.00,,CLR,0.00,VWS V14.00,2013-04-13 10:16:00,
2013-04-13 06:21:00,48.0,42.4,29.85,North,0,0.0,0.0,81,0.00,,CLR,0.00,VWS V14.00,2013-04-13 10:21:00,
2013-04-13 06:26:00,47.7,42.0,29.85,North,0,0.0,0.0,80,0.00,,CLR,0.00,VWS V14.00,2013-04-13 10:26:00,
2013-04-13 06:31:00,47.7,42.0,29.86,North,0,0.0,0.0,80,0.00,,CLR,0.00,VWS V14.00,2013-04-13 10:31:00,
2013-04-13 06:36:00,47.6,42.1,29.86,North,0,0.0,0.0,81,0.00,,CLR,0.00,VWS V14.00,2013-04-13 10:36:00,
2013-04-13 06:41:00,47.5,42.6,29.86,North,0,0.0,0.0,83,0.00,,CLR,0.00,VWS V14.00,2013-04-13 10:41:00,
2013-04-13 06:46:00,47.4,43.2,29.86,North,0,0.0,0.0,85,0.00,,CLR,0.00,VWS V14.00,2013-04-13 10:46:00,
2013-04-13 06:51:00,47.1,43.7,29.86,North,0,0.0,0.0,88,0.00,,CLR,0.00,VWS V14.00,2013-04-13 10:51:00,
2013-04-13 06:57:00,47.0,44.0,29.86,North,0,0.0,0.0,89,0.00,,CLR,0.00,VWS V14.00,2013-04-13 10:57:00,
2013-04-13 07:02:00,46.7,44.1,29.86,North,0,0.0,0.0,90,0.00,,CLR,0.00,VWS V14.00,2013-04-13 11:02:00,
2013-04-13 07:07:00,46.5,44.0,29.87,North,0,0.0,0.0,91,0.00,,CLR,0.00,VWS V14.00,2013-04-13 11:07:00,
2013-04-13 07:12:00,46.4,43.5,29.87,North,0,0.0,0.0,90,0.00,,CLR,0.00,VWS V14.00,2013-04-13 11:12:00,
2013-04-13 07:17:00,46.8,44.0,29.88,North,0,0.0,0.0,90,0.00,,CLR,0.00,VWS V14.00,2013-04-13 11:17:00,
2013-04-13 07:22:00,47.3,44.3,29.88,North,0,0.0,0.0,89,0.00,,CLR,0.00,VWS V14.00,2013-04-13 11:22:00,
2013-04-13 07:28:00,47.5,44.4,29.88,North,0,0.0,0.0,89,0.00,,CLR,0.00,VWS V14.00,2013-04-13 11:28:00,
2013-04-13 07:33:00,47.8,44.5,29.89,North,0,0.0,0.0,88,0.00,,CLR,0.00,VWS V14.00,2013-04-13 11:33:00,
2013-04-13 07:38:00,46.2,42.7,29.89,North,0,0.0,0.0,88,0.00,,CLR,0.00,VWS V14.00,2013-04-13 11:38:00,
2013-04-13 07:43:00,46.8,42.5,29.89,North,0,0.0,0.0,85,0.00,,CLR,0.00,VWS V14.00,2013-04-13 11:43:00,
2013-04-13 07:48:00,47.2,41.9,29.89,North,0,0.0,0.0,82,0.00,,CLR,0.00,VWS V14.00,2013-04-13 11:48:00,
2013-04-13 07:53:00,47.9,43.4,29.89,North,0,0.0,0.0,84,0.00,,CLR,0.00,VWS V14.00,2013-04-13 11:53:00,
2013-04-13 07:58:00,48.7,44.2,29.89,North,0,0.0,0.0,84,0.00,,CLR,0.00,VWS V14.00,2013-04-13 11:58:00,
2013-04-13 08:03:00,49.9,44.7,29.89,North,0,0.0,0.0,82,0.00,,CLR,0.00,VWS V14.00,2013-04-13 12:03:00,
2013-04-13 08:08:00,49.0,42.9,29.89,North,0,0.0,0.0,79,0.00,,CLR,0.00,VWS V14.00,2013-04-13 12:08:00,
2013-04-13 08:14:00,50.0,42.9,29.90,North,0,0.0,0.0,76,0.00,,CLR,0.00,VWS V14.00,2013-04-13 12:14:00,
2013-04-13 08:19:00,50.0,41.0,29.90,North,0,0.0,0.0,71,0.00,,CLR,0.00,VWS V14.00,2013-04-13 12:19:00,
2013-04-13 08:24:00,49.5,40.0,29.90,North,0,0.0,0.0,70,0.00,,CLR,0.00,VWS V14.00,2013-04-13 12:24:00,
2013-04-13 08:29:00,49.7,39.3,29.90,North,0,0.0,0.0,67,0.00,,CLR,0.00,VWS V14.00,2013-04-13 12:29:00,
2013-04-13 08:34:00,51.2,40.1,29.90,North,0,0.0,0.0,66,0.00,,CLR,0.00,VWS V14.00,2013-04-13 12:34:00,
2013-04-13 08:39:00,52.3,40.9,29.90,North,0,0.0,0.0,65,0.00,,CLR,0.00,VWS V14.00,2013-04-13 12:39:00,
2013-04-13 08:44:00,51.3,39.3,29.91,NE,41,0.0,4.4,64,0.00,,CLR,0.00,VWS V14.00,2013-04-13 12:44:00,
2013-04-13 08:49:00,52.3,40.1,29.90,North,7,0.0,4.4,63,0.00,,CLR,0.00,VWS V14.00,2013-04-13 12:49:00,
2013-04-13 08:54:00,53.4,40.6,29.90,NNE,31,0.0,6.8,62,0.00,,CLR,0.00,VWS V14.00,2013-04-13 12:54:00,
2013-04-13 08:59:00,53.1,39.7,29.90,North,359,9.4,9.4,60,0.00,,CLR,0.00,VWS V14.00,2013-04-13 12:59:00,
2013-04-13 09:04:00,54.5,39.8,29.90,NNW,346,0.0,9.4,58,0.00,,CLR,0.00,VWS V14.00,2013-04-13 13:04:00,
2013-04-13 09:09:00,53.7,38.9,29.90,NNW,342,0.0,9.4,57,0.00,,CLR,0.00,VWS V14.00,2013-04-13 13:09:00,
2013-04-13 09:14:00,55.9,39.9,29.91,NE,39,4.8,9.4,55,0.00,,CLR,0.00,VWS V14.00,2013-04-13 13:14:00,
2013-04-13 09:19:00,54.5,38.6,29.91,NE,51,4.2,9.6,55,0.00,,CLR,0.00,VWS V14.00,2013-04-13 13:19:00,
2013-04-13 09:24:00,54.2,37.3,29.91,NNW,329,10.7,10.7,53,0.00,,CLR,0.00,VWS V14.00,2013-04-13 13:24:00,
2013-04-13 09:30:00,54.9,38.1,29.91,North,7,8.2,10.7,53,0.00,,CLR,0.00,VWS V14.00,2013-04-13 13:30:00,
2013-04-13 09:35:00,54.8,37.7,29.91,North,6,8.1,12.3,52,0.00,,CLR,0.00,VWS V14.00,2013-04-13 13:35:00,
2013-04-13 09:40:00,56.1,38.5,29.91,NNW,330,6.6,12.7,52,0.00,,CLR,0.00,VWS V14.00,2013-04-13 13:40:00,
2013-04-13 09:45:00,54.6,36.9,29.92,North,6,9.6,12.7,51,0.00,,CLR,0.00,VWS V14.00,2013-04-13 13:45:00,
2013-04-13 09:50:00,53.5,36.0,29.92,NNE,25,4.2,12.7,51,0.00,,CLR,0.00,VWS V14.00,2013-04-13 13:50:00,
2013-04-13 09:55:00,55.6,37.5,29.92,NNW,338,8.5,15.5,50,0.00,,CLR,0.00,VWS V14.00,2013-04-13 13:55:00,
2013-04-13 10:00:00,55.3,37.2,29.92,NE,39,5.6,15.5,50,0.00,,CLR,0.00,VWS V14.00,2013-04-13 14:00:00,
2013-04-13 10:06:00,55.4,36.8,29.92,NNW,335,7.6,15.5,50,0.00,,CLR,0.00,VWS V14.00,2013-04-13 14:06:00,
2013-04-13 10:11:00,56.8,38.3,29.92,NNE,24,5.2,15.5,50,0.00,,CLR,0.00,VWS V14.00,2013-04-13 14:11:00,
2013-04-13 10:16:00,52.9,34.6,29.92,NNE,15,2.5,15.5,50,0.00,,CLR,0.00,VWS V14.00,2013-04-13 14:16:00,
2013-04-13 10:21:00,58.4,39.5,29.92,North,11,7.3,15.5,49,0.00,,CLR,0.00,VWS V14.00,2013-04-13 14:21:00,
2013-04-13 10:25:00,58.9,39.7,29.92,NNW,328,5.1,15.5,49,0.00,,CLR,0.00,VWS V14.00,2013-04-13 14:25:00,
2013-04-13 10:31:00,58.3,39.2,29.92,NNW,332,4.3,15.5,49,0.00,,CLR,0.00,VWS V14.00,2013-04-13 14:31:00,
2013-04-13 10:36:00,59.3,40.3,29.92,NNE,21,4.6,15.5,49,0.00,,CLR,0.00,VWS V14.00,2013-04-13 14:36:00,
2013-04-13 10:41:00,60.3,40.6,29.92,WNW,284,6.6,15.5,48,0.00,,CLR,0.00,VWS V14.00,2013-04-13 14:41:00,
2013-04-13 10:46:00,59.3,40.0,29.92,North,349,0.0,15.5,49,0.00,,CLR,0.00,VWS V14.00,2013-04-13 14:46:00,
2013-04-13 10:52:00,56.0,36.8,29.92,NNW,332,8.3,15.5,48,0.00,,CLR,0.00,VWS V14.00,2013-04-13 14:52:00,
2013-04-13 10:57:00,57.9,38.8,29.92,NNE,18,4.8,15.5,49,0.00,,CLR,0.00,VWS V14.00,2013-04-13 14:57:00,
2013-04-13 11:02:00,54.8,35.6,29.93,WNW,285,0.0,15.5,48,0.00,,CLR,0.00,VWS V14.00,2013-04-13 15:02:00,
2013-04-13 11:07:00,55.1,35.8,29.92,WNW,285,0.0,15.5,48,0.00,,CLR,0.00,VWS V14.00,2013-04-13 15:07:00,
2013-04-13 11:12:00,58.9,39.4,29.92,North,11,0.0,15.5,48,0.00,,CLR,0.00,VWS V14.00,2013-04-13 15:12:00,
2013-04-13 11:17:00,59.3,39.1,29.92,NNE,13,7.6,15.5,47,0.00,,CLR,0.00,VWS V14.00,2013-04-13 15:17:00,
2013-04-13 11:22:00,59.1,38.9,29.93,North,7,5.5,15.5,47,0.00,,CLR,0.00,VWS V14.00,2013-04-13 15:22:00,
2013-04-13 11:28:00,60.5,40.8,29.92,North,359,3.3,15.5,48,0.00,,CLR,0.00,VWS V14.00,2013-04-13 15:28:00,
2013-04-13 11:33:00,60.5,40.7,29.92,North,11,4.2,15.5,48,0.00,,CLR,0.00,VWS V14.00,2013-04-13 15:33:00,
2013-04-13 11:38:00,61.2,40.7,29.92,NE,53,7.1,15.5,47,0.00,,CLR,0.00,VWS V14.00,2013-04-13 15:38:00,
2013-04-13 11:43:00,61.5,41.0,29.92,WNW,285,8.8,15.5,47,0.00,,CLR,0.00,VWS V14.00,2013-04-13 15:43:00,
2013-04-13 11:48:00,60.9,39.9,29.92,North,6,2.5,15.5,46,0.00,,CLR,0.00,VWS V14.00,2013-04-13 15:48:00,
2013-04-13 11:53:00,61.0,40.2,29.92,NNE,15,0.0,15.5,46,0.00,,CLR,0.00,VWS V14.00,2013-04-13 15:53:00,
2013-04-13 11:58:00,61.6,40.9,29.92,SW,225,1.9,15.5,46,0.00,,CLR,0.00,VWS V14.00,2013-04-13 15:58:00,
2013-04-13 12:03:00,62.2,40.1,29.92,North,359,4.6,15.5,44,0.00,,CLR,0.00,VWS V14.00,2013-04-13 16:03:00,
2013-04-13 12:08:00,62.4,40.6,29.92,North,349,7.4,15.5,45,0.00,,CLR,0.00,VWS V14.00,2013-04-13 16:08:00,
2013-04-13 12:13:00,62.4,39.9,29.92,West,264,0.0,15.5,43,0.00,,CLR,0.00,VWS V14.00,2013-04-13 16:13:00,
2013-04-13 12:18:00,62.9,40.4,29.92,West,264,0.0,15.5,44,0.00,,CLR,0.00,VWS V14.00,2013-04-13 16:18:00,
2013-04-13 12:23:00,61.4,38.7,29.92,SSW,195,3.4,15.5,43,0.00,,CLR,0.00,VWS V14.00,2013-04-13 16:23:00,
2013-04-13 12:28:00,60.7,37.5,29.92,NNW,329,7.3,15.5,42,0.00,,CLR,0.00,VWS V14.00,2013-04-13 16:28:00,
2013-04-13 12:34:00,60.5,37.0,29.92,West,274,8.0,15.5,42,0.00,,CLR,0.00,VWS V14.00,2013-04-13 16:34:00,
2013-04-13 12:39:00,60.8,37.5,29.92,NNE,24,0.0,15.5,42,0.00,,CLR,0.00,VWS V14.00,2013-04-13 16:39:00,
2013-04-13 12:44:00,62.6,39.3,29.92,NNW,343,4.6,15.5,42,0.00,,CLR,0.00,VWS V14.00,2013-04-13 16:44:00,
2013-04-13 12:49:00,62.5,39.1,29.92,WSW,240,0.0,15.5,42,0.00,,CLR,0.00,VWS V14.00,2013-04-13 16:49:00,
2013-04-13 12:54:00,62.5,39.1,29.91,NNE,14,5.2,15.5,42,0.00,,CLR,0.00,VWS V14.00,2013-04-13 16:54:00,
2013-04-13 12:59:00,63.6,40.6,29.91,SSE,167,0.0,15.5,43,0.00,,CLR,0.00,VWS V14.00,2013-04-13 16:59:00,
2013-04-13 13:04:00,63.4,38.7,29.91,NNW,342,5.7,15.5,40,0.00,,CLR,0.00,VWS V14.00,2013-04-13 17:04:00,
2013-04-13 13:09:00,62.6,37.9,29.91,NW,315,7.3,15.5,40,0.00,,CLR,0.00,VWS V14.00,2013-04-13 17:09:00,
2013-04-13 13:14:00,61.8,36.9,29.91,NW,318,0.0,15.5,39,0.00,,CLR,0.00,VWS V14.00,2013-04-13 17:14:00,
2013-04-13 13:19:00,63.5,38.7,29.91,SW,217,4.3,15.5,40,0.00,,CLR,0.00,VWS V14.00,2013-04-13 17:19:00,
2013-04-13 13:24:00,64.5,39.3,29.91,South,179,6.3,15.5,39,0.00,,CLR,0.00,VWS V14.00,2013-04-13 17:24:00,
2013-04-13 13:25:00,67.2,40.0,29.89,WSW,248,5.7,15.5,37,0.00,,CLR,0.00,VWS V14.00,2013-04-13 17:25:00,
2013-04-13 13:26:00,67.2,40.1,29.89,West,276,5.2,15.5,37,0.00,,CLR,0.00,VWS V14.00,2013-04-13 17:26:00,
2013-04-13 13:27:00,67.4,40.7,29.89,North,8,6.8,15.5,38,0.00,,CLR,0.00,VWS V14.00,2013-04-13 17:27:00,
2013-04-13 13:28:00,67.3,40.2,29.89,NNE,21,5.9,15.5,37,0.00,,CLR,0.00,VWS V14.00,2013-04-13 17:28:00,
2013-04-13 13:29:00,62.6,37.2,29.91,WNW,288,8.8,15.5,39,0.00,,CLR,0.00,VWS V14.00,2013-04-13 17:29:00,
2013-04-13 13:30:00,67.7,40.0,29.89,North,6,6.4,15.5,36,0.00,,CLR,0.00,VWS V14.00,2013-04-13 17:30:00,
2013-04-13 13:31:00,67.7,39.0,29.89,NNW,333,0.0,15.5,35,0.00,,CLR,0.00,VWS V14.00,2013-04-13 17:31:00,
2013-04-13 13:34:00,62.6,37.2,29.90,WSW,245,3.4,15.5,39,0.00,,CLR,0.00,VWS V14.00,2013-04-13 17:34:00,
2013-04-13 13:39:00,49.5,25.8,29.90,SW,221,0.0,15.5,39,0.00,,CLR,0.00,VWS V14.00,2013-04-13 17:39:00,
2013-04-13 13:44:00,63.1,38.1,29.90,NW,307,6.6,15.5,40,0.00,,CLR,0.00,VWS V14.00,2013-04-13 17:44:00,
2013-04-13 13:49:00,66.3,40.6,29.89,SW,218,0.0,15.5,39,0.00,,CLR,0.00,VWS V14.00,2013-04-13 17:49:00,
2013-04-13 13:54:00,66.8,41.1,29.89,NNW,339,6.7,15.5,39,0.00,,CLR,0.00,VWS V14.00,2013-04-13 17:54:00,
2013-04-13 13:59:00,66.5,40.9,29.89,West,262,7.3,15.5,39,0.00,,CLR,0.00,VWS V14.00,2013-04-13 17:59:00,
2013-04-13 14:04:00,66.0,39.6,29.89,North,359,9.3,15.5,38,0.00,,CLR,0.00,VWS V14.00,2013-04-13 18:04:00,
2013-04-13 14:09:00,66.2,40.4,29.89,NE,37,3.5,15.5,39,0.00,,CLR,0.00,VWS V14.00,2013-04-13 18:09:00,
2013-04-13 14:15:00,67.2,40.2,29.89,WNW,298,11.0,15.5,37,0.00,,CLR,0.00,VWS V14.00,2013-04-13 18:15:00,
2013-04-13 14:20:00,67.1,39.8,29.89,NNE,20,7.6,15.5,37,0.00,,CLR,0.00,VWS V14.00,2013-04-13 18:20:00,
2013-04-13 14:25:00,67.2,40.2,29.89,WNW,298,8.6,15.5,37,0.00,,CLR,0.00,VWS V14.00,2013-04-13 18:25:00,
2013-04-13 14:30:00,67.4,39.6,29.89,North,3,4.7,15.5,36,0.00,,CLR,0.00,VWS V14.00,2013-04-13 18:30:00,
2013-04-13 14:35:00,67.8,39.6,29.88,WSW,255,5.2,15.5,36,0.00,,CLR,0.00,VWS V14.00,2013-04-13 18:35:00,
2013-04-13 14:40:00,68.2,40.1,29.88,West,273,5.1,15.5,36,0.00,,CLR,0.00,VWS V14.00,2013-04-13 18:40:00,
2013-04-13 14:45:00,68.5,39.7,29.88,NNW,328,10.6,15.5,35,0.00,,CLR,0.00,VWS V14.00,2013-04-13 18:45:00,
2013-04-13 14:50:00,68.1,39.9,29.88,NNW,328,0.0,15.5,36,0.00,,CLR,0.00,VWS V14.00,2013-04-13 18:50:00,
2013-04-13 14:55:00,68.4,39.8,29.89,WNW,295,7.6,15.5,35,0.00,,CLR,0.00,VWS V14.00,2013-04-13 18:55:00,
2013-04-13 15:00:00,68.3,40.3,29.88,NW,305,5.6,15.5,36,0.00,,CLR,0.00,VWS V14.00,2013-04-13 19:00:00,
2013-04-13 15:05:00,68.4,39.4,29.88,SW,233,3.2,15.5,35,0.00,,CLR,0.00,VWS V14.00,2013-04-13 19:05:00,
2013-04-13 15:10:00,68.2,39.0,29.88,NW,304,6.6,15.5,34,0.00,,CLR,0.00,VWS V14.00,2013-04-13 19:10:00,
2013-04-13 15:15:00,68.3,38.7,29.88,SW,233,2.7,15.5,34,0.00,,CLR,0.00,VWS V14.00,2013-04-13 19:15:00,
2013-04-13 15:20:00,68.5,39.7,29.88,WNW,297,7.3,15.5,35,0.00,,CLR,0.00,VWS V14.00,2013-04-13 19:20:00,
2013-04-13 15:25:00,68.1,38.2,29.87,SW,222,6.0,15.5,33,0.00,,CLR,0.00,VWS V14.00,2013-04-13 19:25:00,
2013-04-13 15:30:00,67.3,37.5,29.87,SSW,212,5.8,15.5,33,0.00,,CLR,0.00,VWS V14.00,2013-04-13 19:30:00,
2013-04-13 15:35:00,67.3,37.2,29.87,NNW,339,5.0,15.5,33,0.00,,CLR,0.00,VWS V14.00,2013-04-13 19:35:00,
2013-04-13 15:40:00,67.8,38.5,29.87,NNE,28,3.5,15.5,34,0.00,,CLR,0.00,VWS V14.00,2013-04-13 19:40:00,
2013-04-13 15:45:00,68.4,37.8,29.87,SW,229,4.2,15.5,32,0.00,,CLR,0.00,VWS V14.00,2013-04-13 19:45:00,
2013-04-13 15:50:00,68.9,38.1,29.87,North,352,7.7,15.5,32,0.00,,CLR,0.00,VWS V14.00,2013-04-13 19:50:00,
2013-04-13 15:55:00,68.2,38.0,29.87,West,277,4.3,15.5,33,0.00,,CLR,0.00,VWS V14.00,2013-04-13 19:55:00,
2013-04-13 16:00:00,68.3,38.1,29.86,SW,225,6.6,15.5,33,0.00,,CLR,0.00,VWS V14.00,2013-04-13 20:00:00,
2013-04-13 16:05:00,68.4,37.9,29.86,WSW,253,5.8,15.5,33,0.00,,CLR,0.00,VWS V14.00,2013-04-13 20:05:00,
2013-04-13 16:10:00,68.4,37.8,29.86,West,262,9.1,15.5,32,0.00,,CLR,0.00,VWS V14.00,2013-04-13 20:10:00,
2013-04-13 16:15:00,68.5,38.0,29.86,SSW,210,9.9,15.5,33,0.00,,CLR,0.00,VWS V14.00,2013-04-13 20:15:00,
2013-04-13 16:20:00,68.3,38.1,29.86,NNW,328,7.4,15.5,33,0.00,,CLR,0.00,VWS V14.00,2013-04-13 20:20:00,
2013-04-13 16:25:00,68.4,38.3,29.86,South,176,3.5,15.5,33,0.00,,CLR,0.00,VWS V14.00,2013-04-13 20:25:00,
2013-04-13 16:30:00,68.5,37.4,29.85,North,11,4.5,15.5,32,0.00,,CLR,0.00,VWS V14.00,2013-04-13 20:30:00,
2013-04-13 16:35:00,69.0,38.7,29.85,North,359,0.0,15.5,33,0.00,,CLR,0.00,VWS V14.00,2013-04-13 20:35:00,
2013-04-13 16:40:00,68.1,36.9,29.85,South,172,7.0,15.5,32,0.00,,CLR,0.00,VWS V14.00,2013-04-13 20:40:00,
2013-04-13 16:45:00,68.5,37.8,29.85,SSW,200,4.3,15.5,32,0.00,,CLR,0.00,VWS V14.00,2013-04-13 20:45:00,
2013-04-13 16:50:00,69.1,38.3,29.85,WSW,243,8.1,15.5,32,0.00,,CLR,0.00,VWS V14.00,2013-04-13 20:50:00,
2013-04-13 16:55:00,68.1,37.0,29.85,NNW,332,5.0,15.5,32,0.00,,CLR,0.00,VWS V14.00,2013-04-13 20:55:00,
2013-04-13 17:00:00,55.7,25.3,29.86,SSW,193,0.0,15.5,31,0.00,,CLR,0.00,VWS V14.00,2013-04-13 21:00:00,
2013-04-13 17:05:00,60.7,30.4,29.85,WNW,300,6.5,15.5,32,0.00,,CLR,0.00,VWS V14.00,2013-04-13 21:05:00,
2013-04-13 17:10:00,51.9,22.5,29.85,West,273,3.4,15.5,31,0.00,,CLR,0.00,VWS V14.00,2013-04-13 21:10:00,
2013-04-13 17:15:00,51.2,21.2,29.85,WNW,301,4.5,15.5,30,0.00,,CLR,0.00,VWS V14.00,2013-04-13 21:15:00,
2013-04-13 17:20:00,69.7,38.7,29.85,WNW,297,8.3,15.5,32,0.00,,CLR,0.00,VWS V14.00,2013-04-13 21:20:00,
2013-04-13 17:25:00,72.0,40.0,29.85,WSW,245,5.3,15.5,31,0.00,,CLR,0.00,VWS V14.00,2013-04-13 21:25:00,
2013-04-13 17:30:00,71.9,39.7,29.85,West,270,3.2,15.5,31,0.00,,CLR,0.00,VWS V14.00,2013-04-13 21:30:00,
2013-04-13 17:35:00,72.1,39.7,29.85,West,267,4.4,15.5,31,0.00,,CLR,0.00,VWS V14.00,2013-04-13 21:35:00,
2013-04-13 17:40:00,72.0,40.0,29.85,North,349,0.0,15.5,31,0.00,,CLR,0.00,VWS V14.00,2013-04-13 21:40:00,
2013-04-13 17:45:00,72.0,40.1,29.85,WNW,283,5.7,15.5,31,0.00,,CLR,0.00,VWS V14.00,2013-04-13 21:45:00,
2013-04-13 17:50:00,72.2,40.3,29.85,SW,225,6.9,15.5,32,0.00,,CLR,0.00,VWS V14.00,2013-04-13 21:50:00,
2013-04-13 17:55:00,72.4,40.7,29.85,SW,236,0.0,15.5,32,0.00,,CLR,0.00,VWS V14.00,2013-04-13 21:55:00,
2013-04-13 18:00:00,72.5,39.8,29.85,West,281,5.5,15.5,30,0.00,,CLR,0.00,VWS V14.00,2013-04-13 22:00:00,
2013-04-13 18:05:00,72.2,40.0,29.85,NNW,336,0.0,15.5,31,0.00,,CLR,0.00,VWS V14.00,2013-04-13 22:05:00,
2013-04-13 18:10:00,72.4,39.9,29.85,WSW,257,0.0,15.5,31,0.00,,CLR,0.00,VWS V14.00,2013-04-13 22:10:00,
2013-04-13 18:15:00,72.6,39.7,29.85,WNW,291,3.0,15.5,30,0.00,,CLR,0.00,VWS V14.00,2013-04-13 22:15:00,
2013-04-13 18:20:00,72.4,39.7,29.85,WSW,255,0.0,15.5,30,0.00,,CLR,0.00,VWS V14.00,2013-04-13 22:20:00,
2013-04-13 18:25:00,72.6,39.4,29.85,West,270,5.3,15.5,30,0.00,,CLR,0.00,VWS V14.00,2013-04-13 22:25:00,
2013-04-13 18:30:00,72.3,39.6,29.85,NW,305,0.0,15.5,30,0.00,,CLR,0.00,VWS V14.00,2013-04-13 22:30:00,
2013-04-13 18:35:00,71.8,39.3,29.86,West,259,0.0,15.5,31,0.00,,CLR,0.00,VWS V14.00,2013-04-13 22:35:00,
2013-04-13 18:40:00,71.0,38.0,29.86,West,266,6.8,15.5,30,0.00,,CLR,0.00,VWS V14.00,2013-04-13 22:40:00,
2013-04-13 18:45:00,69.5,36.5,29.86,NW,311,0.0,15.5,30,0.00,,CLR,0.00,VWS V14.00,2013-04-13 22:45:00,
2013-04-13 18:50:00,70.9,37.7,29.86,WNW,301,3.5,15.5,30,0.00,,CLR,0.00,VWS V14.00,2013-04-13 22:50:00,
2013-04-13 18:55:00,71.1,38.0,29.86,WNW,285,5.0,15.5,30,0.00,,CLR,0.00,VWS V14.00,2013-04-13 22:55:00,
2013-04-13 19:00:00,71.5,38.5,29.86,NW,311,0.0,15.5,30,0.00,,CLR,0.00,VWS V14.00,2013-04-13 23:00:00,
2013-04-13 19:05:00,73.2,40.1,29.87,WNW,290,0.0,15.5,30,0.00,,CLR,0.00,VWS V14.00,2013-04-13 23:05:00,
2013-04-13 19:10:00,73.0,40.1,29.87,SW,214,0.0,15.5,30,0.00,,CLR,0.00,VWS V14.00,2013-04-13 23:10:00,
2013-04-13 19:15:00,72.6,39.9,29.87,SW,214,0.0,15.5,31,0.00,,CLR,0.00,VWS V14.00,2013-04-13 23:15:00,
2013-04-13 19:20:00,66.2,34.6,29.87,WNW,287,7.6,15.5,31,0.00,,CLR,0.00,VWS V14.00,2013-04-13 23:20:00,
2013-04-13 19:25:00,71.9,40.0,29.87,West,270,0.0,15.5,31,0.00,,CLR,0.00,VWS V14.00,2013-04-13 23:25:00,
2013-04-13 19:30:00,71.7,40.1,29.87,North,354,2.7,15.5,32,0.00,,CLR,0.00,VWS V14.00,2013-04-13 23:30:00,
2013-04-13 19:35:00,70.5,40.0,29.87,North,356,0.0,15.5,33,0.00,,CLR,0.00,VWS V14.00,2013-04-13 23:35:00,
2013-04-13 19:40:00,69.6,38.8,29.87,West,281,0.0,15.5,32,0.00,,CLR,0.00,VWS V14.00,2013-04-13 23:40:00,
2013-04-13 19:45:00,68.5,38.2,29.87,West,281,0.0,15.5,33,0.00,,CLR,0.00,VWS V14.00,2013-04-13 23:45:00,
2013-04-13 19:50:00,66.8,35.7,29.88,NNW,333,5.0,15.5,32,0.00,,CLR,0.00,VWS V14.00,2013-04-13 23:50:00,
2013-04-13 19:55:00,67.9,36.6,29.88,NNW,343,0.0,15.5,32,0.00,,CLR,0.00,VWS V14.00,2013-04-13 23:55:00,
2013-04-13 20:00:00,67.8,36.0,29.88,NW,325,0.0,15.5,31,0.00,,CLR,0.00,VWS V14.00,2013-04-14 00:00:00,
2013-04-13 20:05:00,65.8,34.0,29.89,West,277,0.0,15.5,30,0.00,,CLR,0.00,VWS V14.00,2013-04-14 00:05:00,
2013-04-13 20:10:00,67.9,36.0,29.89,NW,316,0.0,15.5,31,0.00,,CLR,0.00,VWS V14.00,2013-04-14 00:10:00,
2013-04-13 20:15:00,67.9,35.9,29.89,NW,316,0.0,15.5,31,0.00,,CLR,0.00,VWS V14.00,2013-04-14 00:15:00,
2013-04-13 20:20:00,62.3,30.8,29.89,NW,316,0.0,15.5,30,0.00,,CLR,0.00,VWS V14.00,2013-04-14 00:20:00,
2013-04-13 20:25:00,66.9,35.3,29.89,NW,316,0.0,15.5,31,0.00,,CLR,0.00,VWS V14.00,2013-04-14 00:25:00,
2013-04-13 20:30:00,67.1,35.4,29.89,NW,316,0.0,15.5,31,0.00,,CLR,0.00,VWS V14.00,2013-04-14 00:30:00,
2013-04-13 20:35:00,67.4,36.2,29.89,NW,316,0.0,15.5,32,0.00,,CLR,0.00,VWS V14.00,2013-04-14 00:35:00,
2013-04-13 20:40:00,67.2,36.3,29.90,NW,316,0.0,15.5,32,0.00,,CLR,0.00,VWS V14.00,2013-04-14 00:40:00,
2013-04-13 20:45:00,67.3,36.2,29.90,NW,316,0.0,15.5,32,0.00,,CLR,0.00,VWS V14.00,2013-04-14 00:45:00,
2013-04-13 20:50:00,67.1,35.9,29.90,NNW,330,0.0,15.5,32,0.00,,CLR,0.00,VWS V14.00,2013-04-14 00:50:00,
2013-04-13 20:55:00,67.1,35.7,29.91,NNW,330,0.0,15.5,31,0.00,,CLR,0.00,VWS V14.00,2013-04-14 00:55:00,
2013-04-13 21:00:00,67.2,36.5,29.91,NNW,330,0.0,15.5,32,0.00,,CLR,0.00,VWS V14.00,2013-04-14 01:00:00,
2013-04-13 21:05:00,66.9,37.1,29.91,NNW,330,0.0,15.5,33,0.00,,CLR,0.00,VWS V14.00,2013-04-14 01:05:00,
2013-04-13 21:10:00,65.1,36.0,29.91,NNW,330,0.0,15.5,34,0.00,,CLR,0.00,VWS V14.00,2013-04-14 01:10:00,
2013-04-13 21:15:00,63.1,34.3,29.91,NNW,330,0.0,15.5,34,0.00,,CLR,0.00,VWS V14.00,2013-04-14 01:15:00,
2013-04-13 21:20:00,65.1,36.4,29.92,NNW,330,0.0,15.5,34,0.00,,CLR,0.00,VWS V14.00,2013-04-14 01:20:00,
2013-04-13 21:25:00,65.4,37.0,29.92,NNW,330,0.0,15.5,35,0.00,,CLR,0.00,VWS V14.00,2013-04-14 01:25:00,
2013-04-13 21:30:00,64.6,37.1,29.92,NNW,330,0.0,15.5,36,0.00,,CLR,0.00,VWS V14.00,2013-04-14 01:30:00,
2013-04-13 21:35:00,63.9,36.9,29.92,NNW,330,0.0,15.5,37,0.00,,CLR,0.00,VWS V14.00,2013-04-14 01:35:00,
2013-04-13 21:40:00,63.1,36.8,29.93,NNW,330,0.0,15.5,38,0.00,,CLR,0.00,VWS V14.00,2013-04-14 01:40:00,
2013-04-13 21:45:00,62.5,36.9,29.93,NNW,330,0.0,15.5,38,0.00,,CLR,0.00,VWS V14.00,2013-04-14 01:45:00,
2013-04-13 21:50:00,61.7,36.6,29.93,NNW,330,0.0,15.5,39,0.00,,CLR,0.00,VWS V14.00,2013-04-14 01:50:00,
2013-04-13 21:55:00,61.7,36.2,29.94,NNW,330,0.0,15.5,39,0.00,,CLR,0.00,VWS V14.00,2013-04-14 01:55:00,
2013-04-13 22:00:00,62.1,35.8,29.94,NNW,330,0.0,15.5,37,0.00,,CLR,0.00,VWS V14.00,2013-04-14 02:00:00,
2013-04-13 22:05:00,62.9,36.2,29.94,NNW,330,0.0,15.5,37,0.00,,CLR,0.00,VWS V14.00,2013-04-14 02:05:00,
2013-04-13 22:10:00,63.3,36.3,29.94,NNW,330,0.0,15.5,36,0.00,,CLR,0.00,VWS V14.00,2013-04-14 02:10:00,
2013-04-13 22:15:00,63.6,36.3,29.94,NNW,330,0.0,15.5,36,0.00,,CLR,0.00,VWS V14.00,2013-04-14 02:15:00,
2013-04-13 22:20:00,63.6,36.0,29.94,NW,312,0.0,15.5,36,0.00,,CLR,0.00,VWS V14.00,2013-04-14 02:20:00,
2013-04-13 22:25:00,63.8,36.2,29.94,NW,312,0.0,15.5,36,0.00,,CLR,0.00,VWS V14.00,2013-04-14 02:25:00,
2013-04-13 22:30:00,63.8,36.3,29.95,NW,312,0.0,15.5,36,0.00,,CLR,0.00,VWS V14.00,2013-04-14 02:30:00,
2013-04-13 22:35:00,63.7,36.2,29.95,NW,312,0.0,15.5,36,0.00,,CLR,0.00,VWS V14.00,2013-04-14 02:35:00,
2013-04-13 22:40:00,63.6,36.5,29.95,NW,312,0.0,15.5,36,0.00,,CLR,0.00,VWS V14.00,2013-04-14 02:40:00,
2013-04-13 22:45:00,63.4,36.8,29.95,NW,312,0.0,15.5,37,0.00,,CLR,0.00,VWS V14.00,2013-04-14 02:45:00,
2013-04-13 22:50:00,63.2,36.9,29.95,NW,312,0.0,15.5,38,0.00,,CLR,0.00,VWS V14.00,2013-04-14 02:50:00,
2013-04-13 22:55:00,62.7,37.3,29.95,NW,312,0.0,15.5,39,0.00,,CLR,0.00,VWS V14.00,2013-04-14 02:55:00,
2013-04-13 23:00:00,62.3,37.6,29.96,NW,312,0.0,15.5,40,0.00,,CLR,0.00,VWS V14.00,2013-04-14 03:00:00,
2013-04-13 23:05:00,60.7,36.0,29.96,NW,312,0.0,15.5,40,0.00,,CLR,0.00,VWS V14.00,2013-04-14 03:05:00,
2013-04-13 23:10:00,61.2,36.3,29.97,NW,312,0.0,15.5,39,0.00,,CLR,0.00,VWS V14.00,2013-04-14 03:10:00,
2013-04-13 23:15:00,61.3,36.4,29.96,NW,312,0.0,15.5,39,0.00,,CLR,0.00,VWS V14.00,2013-04-14 03:15:00,
2013-04-13 23:20:00,61.1,36.9,29.97,NW,312,0.0,15.5,40,0.00,,CLR,0.00,VWS V14.00,2013-04-14 03:20:00,
2013-04-13 23:25:00,60.0,37.3,29.97,NW,312,0.0,15.5,43,0.00,,CLR,0.00,VWS V14.00,2013-04-14 03:25:00,
2013-04-13 23:30:00,59.7,36.6,29.96,NW,312,0.0,15.5,42,0.00,,CLR,0.00,VWS V14.00,2013-04-14 03:30:00,
2013-04-13 23:35:00,59.2,36.0,29.96,NW,312,0.0,15.5,42,0.00,,CLR,0.00,VWS V14.00,2013-04-14 03:35:00,
2013-04-13 23:40:00,59.5,36.0,29.97,NW,312,0.0,15.5,41,0.00,,CLR,0.00,VWS V14.00,2013-04-14 03:40:00,
2013-04-13 23:45:00,59.6,36.2,29.96,NW,312,0.0,15.5,42,0.00,,CLR,0.00,VWS V14.00,2013-04-14 03:45:00,
2013-04-13 23:50:00,59.7,36.5,29.97,NW,312,0.0,15.5,42,0.00,,CLR,0.00,VWS V14.00,2013-04-14 03:50:00,
2013-04-13 23:55:00,60.0,37.0,29.96,NW,312,0.0,15.5,42,0.00,,CLR,0.00,VWS V14.00,2013-04-14 03:55:00,